Location: Bieg
(49.3499°N, 10.3835°E)
Time: 06:50:46
(UTC+00:00)

Okean 2 - Pass Details

Date: 12 August 2024
Orbit: 535 x 549 km, 82.5° (Epoch: 14 September)

Event Time Altitude Azimuth Distance (km) Brightness Sun altitude
Rises 01:38:30 0° 341° (NNW) 2,703 7.4 -19.2°
Reaches altitude 10° 01:40:49 10° 332° (NNW) 1,805 6.3 -19.0°
Enters shadow 01:44:17 32° 271° (W) 949 4.2 -18.7°
